| time (UTC) | temp F | wind direction | speed knots | gust knots | rain 1hr in | rain 24hr in | rain mn in | humidity % | barometer mb |
| 20260505011517 | 52 | 252 | 7.0 | 11.3 | 0.00 | 0.41 | 0.03 | 74 | 1004.8 |
| 20260505010016 | 52 | 219 | 6.1 | 12.2 | 0.00 | 0.41 | 0.03 | 74 | 1004.7 |
| 20260505004517 | 53 | 242 | 6.1 | 13.9 | 0.00 | 0.54 | 0.03 | 73 | 1004.6 |
| 20260505003012 | 53 | 233 | 6.1 | 13.0 | 0.00 | 0.54 | 0.03 | 73 | 1004.4 |
| 20260505001510 | 53 | 234 | 7.0 | 11.3 | 0.00 | 0.54 | 0.03 | 72 | 1004.4 |
| 20260505000009 | 53 | 227 | 8.7 | 18.2 | 0.00 | 0.54 | 0.03 | 71 | 1004.1 |
| 20260504234510 | 53 | 229 | 11.3 | 20.0 | 0.00 | 0.62 | 0.03 | 69 | 1003.7 |
| 20260504233005 | 53 | 219 | 9.6 | 17.4 | 0.00 | 0.62 | 0.03 | 68 | 1003.5 |
| 20260504231503 | 54 | 234 | 9.6 | 19.1 | 0.00 | 0.62 | 0.03 | 64 | 1003.3 |
| 20260504230003 | 54 | 259 | 12.2 | 20.9 | 0.00 | 0.63 | 0.03 | 60 | 1003.3 |
| 20260504224605 | 55 | 257 | 10.4 | 18.2 | 0.00 | 0.63 | 0.03 | 54 | 1003.0 |
| 20260504223101 | 55 | 247 | 11.3 | 18.2 | 0.00 | 0.63 | 0.03 | 48 | 1002.8 |
| 20260504221556 | 56 | 245 | 10.4 | 26.1 | 0.00 | 0.63 | 0.03 | 45 | 1002.6 |
| 20260504214557 | 57 | 235 | 8.7 | 18.2 | 0.00 | 0.63 | 0.03 | 44 | 1002.4 |
| 20260504213109 | 58 | 225 | 7.8 | 21.7 | 0.00 | 0.63 | 0.03 | 44 | 1002.4 |
| 20260504211551 | 58 | 259 | 13.0 | 26.1 | 0.00 | 0.63 | 0.03 | 45 | 1002.4 |
| 20260504210049 | 58 | 248 | 9.6 | 22.6 | 0.00 | 0.63 | 0.03 | 46 | 1002.2 |
| 20260504204558 | 57 | 248 | 16.5 | 27.8 | 0.00 | 0.63 | 0.03 | 46 | 1001.9 |
| 20260504203048 | 57 | 219 | 13.0 | 23.5 | 0.00 | 0.63 | 0.03 | 48 | 1001.8 |
| 20260504201544 | 57 | 253 | 8.7 | 16.5 | 0.00 | 0.63 | 0.03 | 51 | 1001.6 |
| 20260504200042 | 56 | 249 | 13.9 | 24.3 | 0.00 | 0.63 | 0.03 | 50 | 1001.6 |
| 20260504194540 | 56 | 257 | 13.9 | 29.5 | 0.00 | 0.63 | 0.03 | 51 | 1001.3 |
| 20260504193053 | 56 | 249 | 12.2 | 23.5 | 0.00 | 0.63 | 0.03 | 53 | 1001.2 |
| 20260504191536 | 55 | 259 | 11.3 | 26.1 | 0.00 | 0.63 | 0.03 | 55 | 1001.3 |
| 20260504190035 | 55 | 258 | 8.7 | 25.2 | 0.00 | 0.63 | 0.03 | 60 | 1000.9 |
| 20260504184530 | 55 | 259 | 9.6 | 23.5 | 0.00 | 0.63 | 0.03 | 62 | 1001.1 |
| 20260504183029 | 54 | 214 | 12.2 | 21.7 | 0.00 | 0.63 | 0.03 | 64 | 1000.8 |
| 20260504181528 | 54 | 225 | 12.2 | 21.7 | 0.00 | 0.63 | 0.03 | 65 | 1000.6 |
| 20260504180025 | 54 | 263 | 10.4 | 22.6 | 0.00 | 0.63 | 0.03 | 67 | 1000.5 |
| 20260504174522 | 55 | 244 | 12.2 | 24.3 | 0.00 | 0.63 | 0.03 | 66 | 1000.2 |
| 20260504173020 | 54 | 247 | 11.3 | 25.2 | 0.00 | 0.63 | 0.03 | 66 | 1000.0 |
| 20260504171517 | 53 | 257 | 13.9 | 26.1 | 0.00 | 0.63 | 0.03 | 69 | 1000.0 |
| 20260504050022 | 39 | 260 | 9.6 | 16.5 | 0.02 | 0.55 | 0.05 | 97 | 978.9 |
| 20260504044521 | 39 | 257 | 7.8 | 13.9 | 0.01 | 0.54 | 0.04 | 97 | 978.4 |
| 20260504043023 | 39 | 284 | 5.2 | 12.2 | 0.01 | 0.54 | 0.03 | 97 | 978.2 |
| 20260504041509 | 41 | 266 | 7.0 | 12.2 | 0.02 | 0.54 | 0.03 | 98 | 977.4 |
| 20260504040015 | 40 | 267 | 2.6 | 7.8 | 0.03 | 0.54 | 0.03 | 98 | 977.1 |
| 20260504034502 | 40 | 284 | 1.7 | 5.2 | 0.03 | 0.54 | 0.03 | 98 | 976.6 |
| 20260504033105 | 40 | 307 | 0.9 | 5.2 | 0.02 | 0.53 | 0.02 | 98 | 976.4 |
| 20260504031604 | 40 | 304 | 1.7 | 7.0 | 0.02 | 0.52 | 0.02 | 98 | 976.2 |
| 20260504030054 | 40 | 319 | 2.6 | 7.0 | 0.01 | 0.50 | 0.00 | 98 | 976.1 |
| 20260504024551 | 41 | 5 | 5.2 | 8.7 | 0.02 | 0.50 | 0.50 | 98 | 976.0 |
| 20260504023050 | 41 | 5 | 2.6 | 7.8 | 0.01 | 0.50 | 0.50 | 98 | 976.1 |
| 20260504021547 | 41 | 66 | 2.6 | 7.8 | 0.02 | 0.50 | 0.50 | 98 | 976.2 |
| 20260504020056 | 42 | 93 | 2.6 | 8.7 | 0.02 | 0.50 | 0.50 | 98 | 976.5 |
| 20260504014550 | 42 | 88 | 4.3 | 12.2 | 0.02 | 0.49 | 0.49 | 98 | 977.0 |
| 20260504013040 | 41 | 88 | 3.5 | 12.2 | 0.02 | 0.49 | 0.49 | 98 | 977.2 |